When you browse on this site, cookies collect data to enhance your experience and personalize the content and advertising you see.
Visit our Privacy Policy to learn more. By continuing to use the site, you agree to this use of cookies and data.
  • en France
  • Liste des pays
  • À 7 jours
  • Température de l'eau
  • Carte météo
  • Widgets météo
  • user-avatar
    Se connecter

    Météo par heure à Takeo

    Ce jour, 30 Mars, Lundi

    Heure Température Précipitation Vent Pression Humidité
    00:00 +29°C° 0 mm 3 m/s 756 mmHg 73%
    01:00 +29°C° 0 mm 4 m/s 756 mmHg 74%
    02:00 +28°C° 0 mm 3 m/s 755 mmHg 75%
    03:00 +28°C° 0 mm 3 m/s 755 mmHg 76%
    04:00 +27°C° 0 mm 2 m/s 755 mmHg 77%
    05:00 +27°C° 0 mm 2 m/s 755 mmHg 75%
    06:00 +28°C° 0 mm 2 m/s 756 mmHg 73%
    07:00 +29°C° 0 mm 2 m/s 757 mmHg 71%
    08:00 +31°C° 0 mm 3 m/s 757 mmHg 62%
    09:00 +34°C° 0 mm 3 m/s 757 mmHg 53%
    10:00 +36°C° 0 mm 3 m/s 757 mmHg 44%
    11:00 +37°C° 0 mm 3 m/s 757 mmHg 40%
    12:00 +38°C° 0 mm 3 m/s 756 mmHg 36%
    13:00 +40°C° 0 mm 3 m/s 755 mmHg 32%
    14:00 +40°C° 0 mm 3 m/s 754 mmHg 31%
    15:00 +40°C° 0 mm 3 m/s 754 mmHg 30%
    16:00 +42°C° 0 mm 3 m/s 753 mmHg 29%
    17:00 +38°C° 0 mm 3 m/s 753 mmHg 36%
    18:00 +36°C° 0 mm 4 m/s 754 mmHg 44%
    19:00 +34°C° 0 mm 4 m/s 754 mmHg 51%
    20:00 +33°C° 0 mm 4 m/s 755 mmHg 57%
    21:00 +31°C° 0 mm 3 m/s 756 mmHg 62%
    22:00 +30°C° 0 mm 2 m/s 757 mmHg 68%
    23:00 +30°C° 0 mm 2 m/s 757 mmHg 70%

    Demain, 31 Mars, Mardi

    Heure Température Précipitation Vent Pression Humidité
    00:00 +29°C° 0 mm 3 m/s 757 mmHg 73%
    01:00 +29°C° 0 mm 3 m/s 757 mmHg 75%
    02:00 +29°C° 0 mm 3 m/s 756 mmHg 77%
    03:00 +28°C° 0 mm 2 m/s 756 mmHg 79%
    04:00 +28°C° 0 mm 2 m/s 755 mmHg 81%
    05:00 +28°C° 0 mm 2 m/s 756 mmHg 79%
    06:00 +29°C° 0 mm 2 m/s 757 mmHg 77%
    07:00 +29°C° 0 mm 2 m/s 757 mmHg 74%
    08:00 +31°C° 0 mm 2 m/s 757 mmHg 67%
    09:00 +34°C° 0 mm 2 m/s 758 mmHg 60%
    10:00 +36°C° 0 mm 3 m/s 758 mmHg 52%
    11:00 +37°C° 0 mm 2 m/s 757 mmHg 47%
    12:00 +37°C° 0 mm 1 m/s 756 mmHg 42%
    13:00 +40°C° 0 mm 1 m/s 756 mmHg 37%
    14:00 +40°C° 0 mm 1 m/s 755 mmHg 36%
    15:00 +40°C° 0 mm 1 m/s 754 mmHg 35%
    16:00 +40°C° 0 mm 1 m/s 753 mmHg 35%
    17:00 +37°C° 0 mm 1 m/s 754 mmHg 40%
    18:00 +36°C° 0 mm 2 m/s 754 mmHg 45%
    19:00 +35°C° 0 mm 2 m/s 754 mmHg 50%
    20:00 +34°C° 0 mm 3 m/s 755 mmHg 55%
    21:00 +33°C° 0 mm 3 m/s 756 mmHg 61%
    22:00 +32°C° 0 mm 4 m/s 756 mmHg 67%
    23:00 +32°C° 0 mm 4 m/s 756 mmHg 70%

    Après-demain, 1 Avril, Mercredi

    Heure Température Précipitation Vent Pression Humidité
    00:00 +30°C° 0 mm 4 m/s 756 mmHg 73%
    01:00 +30°C° 0 mm 4 m/s 756 mmHg 76%
    02:00 +29°C° 0 mm 4 m/s 756 mmHg 77%
    03:00 +29°C° 0 mm 4 m/s 756 mmHg 77%
    04:00 +28°C° 0 mm 3 m/s 755 mmHg 77%
    05:00 +29°C° 0 mm 3 m/s 756 mmHg 78%
    06:00 +29°C° 0 mm 3 m/s 756 mmHg 78%
    07:00 +29°C° 0 mm 2 m/s 757 mmHg 78%
    08:00 +31°C° 0 mm 2 m/s 757 mmHg 67%
    09:00 +34°C° 0 mm 2 m/s 757 mmHg 56%
    10:00 +36°C° 0 mm 2 m/s 758 mmHg 45%
    11:00 +38°C° 0 mm 2 m/s 757 mmHg 40%
    12:00 +40°C° 0 mm 2 m/s 756 mmHg 35%
    13:00 +41°C° 0 mm 1 m/s 755 mmHg 30%
    14:00 +41°C° 0 mm 1 m/s 754 mmHg 30%
    15:00 +41°C° 0 mm 2 m/s 754 mmHg 30%
    16:00 +41°C° 0 mm 2 m/s 753 mmHg 29%
    17:00 +39°C° 0 mm 3 m/s 753 mmHg 35%
    18:00 +37°C° 0 mm 4 m/s 754 mmHg 41%
    19:00 +35°C° 0 mm 5 m/s 754 mmHg 47%
    20:00 +34°C° 0 mm 5 m/s 755 mmHg 54%
    21:00 +33°C° 0 mm 4 m/s 756 mmHg 60%
    22:00 +32°C° 0 mm 4 m/s 756 mmHg 66%
    23:00 +32°C° 0 mm 4 m/s 756 mmHg 68%

    2 Avril, Jeudi

    Heure Température Précipitation Vent Pression Humidité
    00:00 +30°C° 0 mm 4 m/s 756 mmHg 70%
    01:00 +30°C° 0 mm 4 m/s 756 mmHg 72%
    02:00 +30°C° 0 mm 4 m/s 756 mmHg 73%
    03:00 +29°C° 0 mm 4 m/s 756 mmHg 73%
    04:00 +29°C° 0 mm 4 m/s 756 mmHg 74%
    05:00 +29°C° 0 mm 4 m/s 756 mmHg 74%
    06:00 +29°C° 0 mm 4 m/s 756 mmHg 74%
    07:00 +29°C° 0 mm 4 m/s 757 mmHg 74%
    08:00 +32°C° 0 mm 4 m/s 757 mmHg 63%
    09:00 +34°C° 0 mm 4 m/s 757 mmHg 51%
    10:00 +37°C° 0 mm 4 m/s 757 mmHg 39%
    11:00 +38°C° 0 mm 4 m/s 757 mmHg 37%
    12:00 +40°C° 0 mm 4 m/s 756 mmHg 35%
    13:00 +41°C° 0 mm 4 m/s 755 mmHg 33%
    14:00 +41°C° 0 mm 4 m/s 754 mmHg 33%
    15:00 +41°C° 0 mm 4 m/s 754 mmHg 33%
    16:00 +40°C° 0 mm 3 m/s 753 mmHg 33%
    17:00 +38°C° 0 mm 3 m/s 753 mmHg 37%
    18:00 +37°C° 0 mm 3 m/s 754 mmHg 40%
    19:00 +35°C° 0 mm 2 m/s 754 mmHg 44%
    20:00 +34°C° 0 mm 3 m/s 755 mmHg 50%
    21:00 +33°C° 0 mm 4 m/s 755 mmHg 57%
    22:00 +32°C° 0 mm 4 m/s 756 mmHg 63%
    23:00 +30°C° 0 mm 4 m/s 756 mmHg 66%

    3 Avril, Vendredi

    Heure Température Précipitation Vent Pression Humidité
    00:00 +30°C° 0 mm 4 m/s 756 mmHg 70%
    01:00 +29°C° 0 mm 4 m/s 756 mmHg 73%
    02:00 +28°C° 0 mm 3 m/s 756 mmHg 76%
    03:00 +28°C° 0 mm 2 m/s 756 mmHg 80%
    04:00 +27°C° 0 mm 1 m/s 756 mmHg 83%
    05:00 +27°C° 0 mm 1 m/s 756 mmHg 81%
    06:00 +28°C° 0 mm 2 m/s 757 mmHg 79%
    07:00 +28°C° 0 mm 2 m/s 758 mmHg 77%
    08:00 +30°C° 0 mm 2 m/s 758 mmHg 69%
    09:00 +33°C° 0 mm 3 m/s 758 mmHg 61%
    10:00 +34°C° 0 mm 4 m/s 758 mmHg 53%
    11:00 +37°C° 0 mm 4 m/s 757 mmHg 45%
    12:00 +39°C° 0 mm 3 m/s 756 mmHg 37%
    13:00 +42°C° 0 mm 3 m/s 755 mmHg 30%
    14:00 +42°C° 0 mm 3 m/s 754 mmHg 27%
    15:00 +43°C° 0 mm 4 m/s 753 mmHg 24%
    16:00 +43°C° 0 mm 5 m/s 753 mmHg 22%
    17:00 +41°C° 0 mm 4 m/s 753 mmHg 26%
    18:00 +38°C° 0 mm 3 m/s 754 mmHg 31%
    19:00 +36°C° 0 mm 2 m/s 754 mmHg 36%
    20:00 +35°C° 0 mm 3 m/s 755 mmHg 44%
    21:00 +33°C° 0 mm 4 m/s 756 mmHg 52%
    22:00 +32°C° 0 mm 5 m/s 757 mmHg 60%
    23:00 +30°C° 0 mm 4 m/s 757 mmHg 64%

    4 Avril, Samedi

    Heure Température Précipitation Vent Pression Humidité
    00:00 +29°C° 0 mm 3 m/s 756 mmHg 69%
    01:00 +28°C° 0 mm 2 m/s 756 mmHg 73%
    02:00 +29°C° 0 mm 2 m/s 756 mmHg 72%
    03:00 +29°C° 0 mm 2 m/s 756 mmHg 70%
    04:00 +29°C° 0 mm 2 m/s 756 mmHg 68%
    05:00 +29°C° 0 mm 1 m/s 757 mmHg 68%
    06:00 +30°C° 0 mm 1 m/s 757 mmHg 68%
    07:00 +28°C° 0 mm 0 m/s 758 mmHg 68%
    08:00 +32°C° 0 mm 2 m/s 758 mmHg 61%
    09:00 +34°C° 0 mm 3 m/s 758 mmHg 53%
    10:00 +36°C° 0 mm 5 m/s 758 mmHg 46%
    11:00 +38°C° 0 mm 4 m/s 757 mmHg 40%
    12:00 +40°C° 0 mm 4 m/s 756 mmHg 35%
    13:00 +42°C° 0 mm 3 m/s 755 mmHg 29%
    14:00 +42°C° 0 mm 3 m/s 755 mmHg 29%
    15:00 +42°C° 0 mm 3 m/s 754 mmHg 28%
    16:00 +41°C° 0 mm 2 m/s 753 mmHg 27%
    17:00 +39°C° 0 mm 3 m/s 754 mmHg 32%
    18:00 +38°C° 0 mm 3 m/s 754 mmHg 38%
    19:00 +36°C° 0 mm 4 m/s 755 mmHg 44%
    20:00 +35°C° 0 mm 4 m/s 755 mmHg 49%
    21:00 +34°C° 0 mm 5 m/s 756 mmHg 55%
    22:00 +32°C° 0 mm 5 m/s 757 mmHg 60%
    23:00 +30°C° 0 mm 4 m/s 757 mmHg 65%
    Voir plus